Location: Baix
(44.7118°N, 4.7648°E)
Time: 19:14:59
(UTC+00:00)

Cosmos 2228 - Pass Details

Date: 07 August 2020
Orbit: 588 x 619 km, 82.5° (Epoch: 24 September)

Event Time Altitude Azimuth Distance (km) Brightness Sun altitude
Rises 03:29:51 0° 177° (S) 2,855 6.1 -10.7°
Reaches altitude 10° 03:32:05 10° 173° (S) 1,961 5.4 -10.4°
Maximum altitude 03:36:20 58° 94° (E) 722 3.7 -9.8°
Drops below altitude 10° 03:40:40 10° 16° (NNE) 1,991 6.5 -9.2°
Sets 03:42:56 0° 13° (NNE) 2,904 7.3 -8.8°
